Flag for Algeria Weather past 2 weeks in Constantine, Algeria

Now
68 °F

Passing clouds.


Feels Like: 68 °F
Forecast: 59 / 92 °F
Wind: No wind

Location: Constantine Airport

Current Time: Jul 30, 2014 at 4:34:46 AM

Latest Report: Jul 30, 2014 at 4:00 AM


Visibility: N/A

Pressure: 30.01 "Hg

Humidity: 83%

Dew point: 63 °F

Location of ConstantineLocation

Historic Weather in Constantine — Graph

°F

Constantine temperature yesterday

Maximum temperature yesterday: 93 °F (at 2:00 PM)
Minimum temperature yesterday: 70 °F (at 4:30 AM)
Average temperature yesterday: 80 °F

Past Weeks' High & Low Weather Summary

 TemperatureHumidityPressure
High106 °F (Jul 20, 12:30 PM)88% (Jul 30, 2:00 AM)30.21 "Hg (Jul 30, 2:00 AM)
Low57 °F (Jul 16, 5:00 AM)10% (Jul 18, 4:00 PM)29.89 "Hg (Jul 25, 4:00 PM)
Average80 °F40%30.07 "Hg
* Reported Jul 15 3:00 AM — Jul 30 3:30 AM, Constantine, Weather by CustomWeather, © 2014

Note: Actual official high and low records may vary slightly from our data, if they occured in-between our weather recording intervals... More about our weather records

Advertising

Constantine weather history for previous 24 hours

 ConditionsComfort  
Time TempWeatherWind HumidityBarometerVisibility
3:30 AM
Jul 30
68 °FPassing clouds.No wind88%30.01 "HgN/A
3:00 AM68 °FPassing clouds.No wind88%30.01 "HgN/A
2:30 AM68 °FPassing clouds.No wind88%30.01 "HgN/A
2:00 AM68 °FPassing clouds.No wind88%30.01 "HgN/A
1:30 AM68 °FPassing clouds.No wind83%30.04 "HgN/A
1:00 AM68 °FPassing clouds.No wind83%30.04 "HgN/A
12:30 AM70 °FPassing clouds.No wind78%30.04 "HgN/A
12:00 AM70 °FPassing clouds.No wind78%30.04 "HgN/A
11:30 PM
Jul 29
72 °FClear.No wind73%30.04 "Hg10 mi
11:00 PM72 °FClear.No wind73%30.04 "Hg10 mi
10:30 PM72 °FPassing clouds.No wind73%30.04 "HgN/A
10:00 PM72 °FPassing clouds.No wind73%30.04 "HgN/A
9:30 PM72 °FPassing clouds.No wind73%30.04 "HgN/A
9:00 PM73 °FPassing clouds.6 mph69%30.01 "HgN/A
8:30 PM72 °FPassing clouds.12 mph69%29.98 "HgN/A
8:00 PM73 °FPassing clouds.14 mph65%29.98 "HgN/A
7:30 PM77 °FSunny.12 mph61%29.92 "Hg10 mi
7:00 PM79 °FPassing clouds.18 mph54%29.92 "HgN/A
6:30 PM79 °FSunny.12 mph54%29.92 "Hg10 mi
6:00 PM81 °FSunny.18 mph54%29.92 "Hg10 mi
5:00 PM84 °FSunny.18 mph51%29.89 "Hg10 mi
4:30 PM88 °FScattered clouds.12 mph38%29.89 "HgN/A
4:00 PM90 °FScattered clouds.12 mph41%29.89 "HgN/A
3:30 PM91 °FScattered clouds.16 mph36%29.89 "HgN/A
3:00 PM91 °FScattered clouds.15 mph36%29.89 "HgN/A
2:00 PM93 °FScattered clouds.14 mph34%29.89 "HgN/A
1:30 PM91 °FSunny.15 mph36%29.89 "Hg10 mi
1:00 PM91 °FSunny.15 mph36%29.89 "Hg10 mi
12:30 PM91 °FSunny.7 mph34%29.92 "Hg10 mi
12:00 PM90 °FSunny.17 mph36%29.92 "Hg10 mi
11:30 AM90 °FSunny.20 mph36%29.92 "Hg10 mi
11:00 AM88 °FSunny.15 mph40%29.92 "Hg10 mi
10:30 AM90 °FSunny.7 mph36%29.92 "Hg10 mi
10:00 AM88 °FSunny.14 mph40%29.92 "Hg10 mi
9:30 AM88 °FSunny.No wind31%29.92 "Hg10 mi
9:00 AM88 °FSunny.No wind31%29.92 "Hg10 mi
8:30 AM84 °FSunny.No wind35%29.92 "Hg10 mi
8:00 AM81 °FSunny.No wind39%29.92 "Hg10 mi
7:30 AM77 °FSunny.No wind44%29.92 "Hg10 mi
7:00 AM79 °FSunny.No wind42%29.92 "Hg10 mi
6:30 AM72 °FSunny.No wind47%29.89 "Hg10 mi
6:00 AM72 °FSunny.No wind47%29.89 "Hg10 mi
5:30 AM73 °FClear.No wind44%29.89 "Hg10 mi
5:00 AM70 °FClear.No wind50%29.89 "Hg10 mi
4:30 AM70 °FClear.No wind50%29.89 "Hg10 mi
Weather by CustomWeather, © 2014

See weather overviewHow to use our weather pages